This is the latest recevied weather packets stored in our database for station/object HB9GFF-10. If no packets are shown the sender has not sent any weather packets the latest 10 day(s).
| Time | Temp. | Humidity | Pressure | Rain* | Wind** | Luminosity | Snow |
|---|---|---|---|---|---|---|---|
| 1777367968 | 25.56° C | 34% | 953 hPa | - | - | - | - |
| 1777367902 | 25° C | 33% | 953 hPa | - | - | - | - |
| 1777367837 | 25.56° C | 33% | 953 hPa | - | - | - | - |
| 1777367771 | 25° C | 33% | 953 hPa | - | - | - | - |
| 1777367706 | 24.44° C | 32% | 953 hPa | - | - | - | - |
| 1777367641 | 23.89° C | 35% | 953 hPa | - | - | - | - |
| 1777367575 | 23.89° C | 33% | 953 hPa | - | - | - | - |
| 1777367510 | 23.89° C | 35% | 953 hPa | - | - | - | - |
| 1777367444 | 24.44° C | 32% | 953 hPa | - | - | - | - |
| 1777367379 | 24.44° C | 34% | 953 hPa | - | - | - | - |
| 1777367314 | 25° C | 35% | 953 hPa | - | - | - | - |
| 1777367248 | 25° C | 32% | 953 hPa | - | - | - | - |
| 1777367183 | 24.44° C | 34% | 953 hPa | - | - | - | - |
| 1777367117 | 23.89° C | 34% | 953 hPa | - | - | - | - |
| 1777367052 | 24.44° C | 33% | 953 hPa | - | - | - | - |
| 1777366987 | 25° C | 34% | 953 hPa | - | - | - | - |
| 1777366921 | 24.44° C | 35% | 953 hPa | - | - | - | - |
| 1777366856 | 23.89° C | 36% | 953 hPa | - | - | - | - |
| 1777366790 | 23.89° C | 36% | 953 hPa | - | - | - | - |
| 1777366725 | 23.89° C | 36% | 953 hPa | - | - | - | - |
| 1777366660 | 23.33° C | 37% | 953 hPa | - | - | - | - |
| 1777366594 | 23.33° C | 35% | 953 hPa | - | - | - | - |
| 1777366529 | 23.89° C | 34% | 953 hPa | - | - | - | - |
| 1777366463 | 23.33° C | 39% | 953 hPa | - | - | - | - |
| 1777366398 | 23.89° C | 37% | 953 hPa | - | - | - | - |
* Rain since midnight (hover to see other rain measurements)
** Current wind speed in m/s (hover to see current wind gust speed)